This is the latest recevied weather packets stored in our database for station/object DK0KTL-4. If no packets are shown the sender has not sent any weather packets the latest 10 day(s).
| Time | Temp. | Humidity | Pressure | Rain* | Wind** | Luminosity | Snow |
|---|---|---|---|---|---|---|---|
| 1777619403 | 7.78° C | 70% | 1029.7 hPa | 0 mm | - | - | - |
| 1777618502 | 6.67° C | 74% | 1029.6 hPa | 0 mm | - | - | - |
| 1777617301 | 6.11° C | 76% | 1029.7 hPa | 0 mm | - | - | - |
| 1777616700 | 5.56° C | 78% | 1029.7 hPa | 0 mm | - | - | - |
| 1777616400 | 5° C | 80% | 1029.6 hPa | 0 mm | - | - | - |
| 1777615199 | 4.44° C | 82% | 1029.6 hPa | 0 mm | - | - | - |
| 1777614598 | 3.89° C | 83% | 1029.7 hPa | 0 mm | - | - | - |
| 1777613998 | 3.33° C | 83% | 1029.7 hPa | 0 mm | - | - | - |
| 1777613697 | 3.33° C | 84% | 1029.7 hPa | 0 mm | - | - | - |
| 1777612796 | 3.33° C | 85% | 1029.6 hPa | 0 mm | - | - | - |
| 1777610995 | 2.78° C | 86% | 1029.6 hPa | 0 mm | - | - | - |
| 1777609794 | 2.22° C | 87% | 1029.5 hPa | 0 mm | - | - | - |
| 1777609193 | 2.22° C | 87% | 1029.4 hPa | 0 mm | - | - | - |
| 1777608592 | 2.22° C | 87% | 1029.4 hPa | 0 mm | - | - | - |
| 1777606791 | 2.22° C | 86% | 1029.2 hPa | 0 mm | - | - | - |
| 1777606190 | 2.22° C | 86% | 1029.3 hPa | 0 mm | - | - | - |
| 1777605289 | 2.78° C | 85% | 1029.3 hPa | 0 mm | - | - | - |
| 1777604989 | 2.78° C | 85% | 1029.3 hPa | 0 mm | - | - | - |
| 1777604388 | 2.78° C | 85% | 1029.3 hPa | 0 mm | - | - | - |
| 1777603788 | 2.78° C | 84% | 1029.4 hPa | 0 mm | - | - | - |
| 1777603487 | 2.78° C | 84% | 1029.3 hPa | 0 mm | - | - | - |
| 1777601986 | 2.78° C | 85% | 1029.3 hPa | 0 mm | - | - | - |
| 1777601686 | 2.78° C | 85% | 1029.3 hPa | 0 mm | - | - | - |
| 1777601385 | 2.78° C | 85% | 1029.2 hPa | 0 mm | - | - | - |
| 1777600785 | 2.78° C | 84% | 1029.2 hPa | 0 mm | - | - | - |
* Rain latest hour (hover to see other rain measurements)
** Current wind speed in m/s (hover to see current wind gust speed)